Home > Weather > Syracuse > Past weeks

Flag for USA Past Weather in Syracuse, New York, USA — Yesterday and Last 2 Weeks

Now
63 °F

Passing clouds.


Feels Like: 63 °F
Forecast: 65 / 91 °F
Wind: 3 mph from Southeast

Location: Syracuse Hancock International Airport

Current Time: Jun 26, 2016 at 6:05:54 AM

Latest Report: Jun 26, 2016 at 4:54 AM


Visibility: 10 mi

Pressure: 30.11 "Hg

Humidity: 84%

Dew Point: 58 °F

Location of SyracuseLocation

Past Weather in Syracuse — Graph

°F

Syracuse Temperature Yesterday

Maximum temperature yesterday: 85 °F (at 2:54 PM)
Minimum temperature yesterday: 55 °F (at 5:54 AM)
Average temperature yesterday: 71 °F

High & Low Weather Summary for the Past Weeks

 TemperatureHumidityPressure
High89 °F (Jun 20, 3:54 PM)100% (Jun 11, 8:54 AM)30.27 "Hg (Jun 11, 8:54 AM)
Low44 °F (Jun 14, 5:54 AM)28% (Jun 17, 3:54 PM)29.62 "Hg (Jun 12, 2:54 AM)
Average67 °F61%29.94 "Hg
* Reported Jun 11 4:54 AM — Jun 26 4:54 AM, Syracuse, Weather by CustomWeather, © 2016

Note: Actual official high and low records may vary slightly from our data, if they occured in-between our weather recording intervals... More about our weather records

Advertising

Syracuse Weather History for the Previous 24 Hours

Scroll right to see more
 ConditionsComfort  
Time TempWeatherWind HumidityBarometerVisibility
4:54 AM
Sun, Jun 26
63 °FPassing clouds.3 mph84%30.11 "Hg10 mi
3:54 AM63 °FPassing clouds.No wind84%30.11 "Hg10 mi
2:54 AM65 °FPassing clouds.5 mph78%30.11 "Hg10 mi
1:54 AM65 °FPassing clouds.6 mph78%30.12 "Hg10 mi
12:54 AM66 °FPassing clouds.5 mph75%30.11 "Hg10 mi
11:54 PM
Sat, Jun 25
69 °FPassing clouds.No wind70%30.10 "Hg10 mi
10:54 PM69 °FPassing clouds.3 mph73%30.09 "Hg10 mi
9:54 PM71 °FPassing clouds.No wind68%30.10 "Hg10 mi
8:54 PM73 °FScattered clouds.3 mph64%30.09 "Hg10 mi
7:54 PM79 °FScattered clouds.5 mph48%30.10 "Hg10 mi
6:54 PM82 °FScattered clouds.5 mph41%30.10 "Hg10 mi
5:54 PM83 °FScattered clouds.6 mph41%30.09 "Hg10 mi
4:54 PM84 °FScattered clouds.8 mph40%30.10 "Hg10 mi
3:54 PM84 °FScattered clouds.8 mph40%30.12 "Hg10 mi
2:54 PM85 °FPartly sunny.No wind37%30.12 "Hg10 mi
1:54 PM83 °FPartly sunny.7 mph38%30.13 "Hg10 mi
12:54 PM81 °FPartly sunny.No wind39%30.15 "Hg10 mi
11:54 AM78 °FPassing clouds.No wind48%30.16 "Hg10 mi
10:54 AM76 °FPassing clouds.No wind54%30.17 "Hg10 mi
9:54 AM72 °FSunny.3 mph59%30.16 "Hg10 mi
8:54 AM67 °FSunny.No wind71%30.16 "Hg10 mi
7:54 AM64 °FSunny.No wind78%30.15 "Hg10 mi
6:54 AM59 °FSunny.No wind87%30.15 "Hg10 mi
Weather by CustomWeather, © 2016

See weather overviewHow to use our weather pages